N216TB TNCS-TKPK

Flight info

Callsign N216TB
Flight time 0h 19m
Altitude 7000
Route ZAPATA
Aircraft K100/L-L/C

Departure

Time 2026-04-29 16:45
Airport Juancho E. Yrausquin Airport (TNCS)

Arrival

Time 2026-04-29 17:04
Airport Robert L. Bradshaw International Airport (TKPK)
Time Latitude Longitude Altitude Speed Heading
2026-04-29 15:59 17.64461 -63.22049 135 ft 0 kts 205°
2026-04-29 16:33 17.64484 -63.22037 131 ft 1 kts 205°
2026-04-29 16:34 17.64484 -63.22038 131 ft 0 kts 205°
2026-04-29 16:39 17.64461 -63.22049 131 ft 0 kts 205°
2026-04-29 16:42 17.64467 -63.22046 131 ft 1 kts 236°
2026-04-29 16:43 17.64468 -63.22051 132 ft 0 kts 299°
2026-04-29 16:43 17.64504 -63.22030 131 ft 13 kts 24°
2026-04-29 16:43 17.64562 -63.22115 139 ft 19 kts 290°
2026-04-29 16:43 17.64604 -63.22194 144 ft 12 kts 310°
2026-04-29 16:44 17.64603 -63.22222 144 ft 0 kts 118°
2026-04-29 16:44 17.64578 -63.22163 143 ft 38 kts 111°
2026-04-29 16:44 17.64353 -63.21683 190 ft 97 kts 126°
2026-04-29 16:45 17.63981 -63.21025 496 ft 109 kts 119°
2026-04-29 16:45 17.63675 -63.20284 906 ft 112 kts 113°
2026-04-29 16:45 17.63375 -63.19523 1336 ft 114 kts 114°
2026-04-29 16:45 17.63049 -63.18754 1775 ft 116 kts 115°
2026-04-29 16:46 17.62714 -63.17979 2208 ft 117 kts 115°
2026-04-29 16:46 17.62378 -63.17208 2646 ft 115 kts 115°
2026-04-29 16:46 17.62047 -63.16452 3078 ft 113 kts 116°
2026-04-29 16:46 17.61720 -63.15709 3504 ft 112 kts 116°
2026-04-29 16:47 17.61398 -63.14980 3929 ft 112 kts 117°
2026-04-29 16:47 17.61063 -63.14237 4366 ft 114 kts 116°
2026-04-29 16:47 17.60731 -63.13480 4801 ft 115 kts 116°
2026-04-29 16:47 17.60367 -63.12677 5000 ft 136 kts 117°
2026-04-29 16:48 17.59925 -63.11713 5006 ft 155 kts 115°
2026-04-29 16:48 17.59463 -63.10657 5011 ft 163 kts 115°
2026-04-29 16:48 17.58985 -63.09569 5008 ft 166 kts 115°
2026-04-29 16:48 17.58498 -63.08465 5008 ft 167 kts 115°
2026-04-29 16:49 17.58012 -63.07371 5007 ft 168 kts 115°
2026-04-29 16:49 17.57519 -63.06259 5013 ft 168 kts 115°
2026-04-29 16:49 17.57025 -63.05147 5017 ft 168 kts 115°
2026-04-29 16:49 17.56530 -63.04032 5012 ft 169 kts 115°
2026-04-29 16:50 17.56035 -63.02918 5006 ft 169 kts 115°
2026-04-29 16:50 17.55540 -63.01805 5007 ft 168 kts 115°
2026-04-29 16:50 17.55045 -63.00693 5009 ft 169 kts 115°
2026-04-29 16:50 17.54549 -62.99576 5008 ft 169 kts 115°
2026-04-29 16:51 17.54059 -62.98476 5009 ft 169 kts 115°
2026-04-29 16:51 17.53563 -62.97361 5003 ft 169 kts 115°
2026-04-29 16:51 17.53068 -62.96247 5010 ft 169 kts 115°
2026-04-29 16:51 17.52573 -62.95133 5008 ft 168 kts 115°
2026-04-29 16:52 17.52074 -62.94015 4877 ft 169 kts 115°
2026-04-29 16:52 17.51587 -62.92920 4681 ft 164 kts 115°
2026-04-29 16:52 17.51116 -62.91860 4468 ft 157 kts 115°
2026-04-29 16:52 17.50665 -62.90845 4265 ft 151 kts 115°
2026-04-29 16:53 17.50229 -62.89861 4062 ft 147 kts 115°
2026-04-29 16:53 17.49798 -62.88896 3861 ft 146 kts 115°
2026-04-29 16:53 17.49376 -62.87952 3677 ft 145 kts 115°
2026-04-29 16:53 17.48951 -62.86996 3478 ft 144 kts 115°
2026-04-29 16:54 17.48531 -62.86054 3287 ft 142 kts 115°
2026-04-29 16:54 17.48119 -62.85127 3090 ft 140 kts 116°
2026-04-29 16:54 17.47714 -62.84221 3010 ft 133 kts 115°
2026-04-29 16:54 17.47341 -62.83481 3007 ft 126 kts 126°
2026-04-29 16:55 17.47339 -62.83478 3007 ft 126 kts 126°
2026-04-29 16:55 17.46692 -62.82872 3002 ft 122 kts 146°
2026-04-29 16:56 17.45990 -62.82384 2989 ft 120 kts 143°
2026-04-29 16:56 17.45266 -62.81865 2793 ft 131 kts 143°
2026-04-29 16:56 17.44453 -62.81416 2707 ft 132 kts 161°
2026-04-29 16:56 17.43560 -62.81512 2652 ft 135 kts 197°
2026-04-29 16:57 17.42690 -62.81873 2613 ft 132 kts 195°
2026-04-29 16:57 17.41853 -62.82244 2584 ft 133 kts 199°
2026-04-29 16:57 17.41008 -62.82670 2534 ft 141 kts 202°
2026-04-29 16:57 17.40135 -62.83149 2486 ft 144 kts 202°
2026-04-29 16:58 17.39222 -62.83649 2364 ft 151 kts 201°
2026-04-29 16:58 17.38291 -62.84135 2309 ft 149 kts 200°
2026-04-29 16:58 17.37322 -62.84533 2225 ft 151 kts 196°
2026-04-29 16:58 17.36331 -62.84892 2215 ft 150 kts 194°
2026-04-29 16:59 17.35349 -62.85216 2227 ft 145 kts 186°
2026-04-29 16:59 17.34347 -62.85233 2147 ft 146 kts 166°
2026-04-29 16:59 17.33402 -62.84875 2033 ft 144 kts 155°
2026-04-29 16:59 17.32499 -62.84459 1986 ft 140 kts 152°
2026-04-29 17:00 17.31637 -62.84035 1921 ft 139 kts 150°
2026-04-29 17:00 17.30785 -62.83567 1844 ft 138 kts 149°
2026-04-29 17:00 17.29968 -62.83027 1743 ft 140 kts 137°
2026-04-29 17:00 17.29332 -62.82261 1637 ft 139 kts 120°
2026-04-29 17:01 17.28972 -62.81328 1561 ft 139 kts 108°
2026-04-29 17:01 17.28729 -62.80373 1433 ft 133 kts 105°
2026-04-29 17:01 17.28532 -62.79458 1353 ft 126 kts 102°
2026-04-29 17:01 17.28376 -62.78555 1207 ft 129 kts 101°
2026-04-29 17:02 17.28252 -62.77718 1293 ft 111 kts 100°
2026-04-29 17:02 17.28177 -62.76954 1340 ft 99 kts 88°
2026-04-29 17:02 17.28429 -62.76281 1239 ft 99 kts 66°
2026-04-29 17:02 17.28773 -62.75739 1004 ft 80 kts 63°
2026-04-29 17:03 17.29072 -62.75293 841 ft 73 kts 61°
2026-04-29 17:03 17.29358 -62.74873 659 ft 69 kts 70°
2026-04-29 17:03 17.29604 -62.74426 590 ft 76 kts 67°
2026-04-29 17:03 17.29861 -62.73930 563 ft 73 kts 62°
2026-04-29 17:04 17.30108 -62.73502 378 ft 70 kts 64°
2026-04-29 17:04 17.30355 -62.73093 270 ft 63 kts 68°
2026-04-29 17:04 17.30591 -62.72718 182 ft 58 kts 58°
2026-04-29 17:04 17.30770 -62.72424 175 ft 35 kts 57°
2026-04-29 17:05 17.30894 -62.72228 175 ft 31 kts 58°
2026-04-29 17:05 17.30996 -62.72064 175 ft 18 kts 58°
2026-04-29 17:05 17.31041 -62.71955 173 ft 16 kts 76°
2026-04-29 17:05 17.31062 -62.71837 172 ft 16 kts 81°
2026-04-29 17:06 17.31071 -62.71754 172 ft 11 kts 85°
2026-04-29 17:06 17.31062 -62.71678 172 ft 11 kts 107°
2026-04-29 17:06 17.31029 -62.71632 172 ft 3 kts 147°
2026-04-29 17:06 17.31003 -62.71614 172 ft 5 kts 148°
2026-04-29 17:07 17.30998 -62.71610 172 ft 0 kts 145°
2026-04-29 17:07 17.31005 -62.71615 172 ft 0 kts 148°
2026-04-29 17:07 17.31004 -62.71614 172 ft 0 kts 148°